Weather History for Rickenbacker, OH

Change the Weather History Date:

Wednesday, November 13, 2013

  Actual Average Record
Temperature  
Mean Temperature 30 °F -  
Max Temperature 39 °F 50 °F 72 °F (2010)
Min Temperature 22 °F 34 °F 22 °F (2013)
Degree Days  
Heating Degree Days 34    
Moisture  
Dew Point 18 °F    
Average Humidity 61    
Maximum Humidity 83    
Minimum Humidity 36    
Precipitation  
Precipitation 0.00 in - - ()
Sea Level Pressure  
Sea Level Pressure 30.52 in    
Wind  
Wind Speed 6 mph (WSW)    
Max Wind Speed 14 mph    
Max Gust Speed 20 mph    
Visibility 10 miles    
Events      
Averages and records for this station are not official NWS values.
T = Trace of Precipitation, MM = Missing Value Source: NWS Daily Summary

Daily Weather History Graph

Daily Weather History Graph

Search for Another Location

Airport:

Trip Planner

Search our weather history database for the weather conditions in past years. The results will help you decide how hot, cold, wet, or windy it might be!

Date:

Astronomy

Nov. 13, 2013 Rise Set
Actual Time 7:14 AM EST 5:17 PM EST
Civil Twilight 6:45 AM EST 5:46 PM EST
Nautical Twilight 6:13 AM EST 6:18 PM EST
Astronomical Twilight 5:41 AM EST 6:50 PM EST
Moon 3:03 PM EST (11/13) 3:06 AM EST (11/13)
Length of Visible Light 11h 00m
Length of Day
10h 02m
Waxing Gibbous, 84% of the Moon is Illuminated
Nov 13
Waxing Gibbous
Nov 17
Full
Nov 25
Last Quarter
Dec 2
New
Dec 9
First Quarter

Hourly Weather History & Observations

Time (EST) Temp. Windchill Dew Point Humidity Pressure Visibility Wind Dir Wind Speed Gust Speed Precip Events Conditions
12:15 AM 26.4 °F 20.9 °F 20.1 °F 77% 30.56 in 10.0 mi West 4.6 mph - N/A   Clear
12:35 AM 25.9 °F 20.3 °F 20.1 °F 79% 30.56 in 10.0 mi West 4.6 mph - N/A   Clear
12:55 AM 26.2 °F 19.6 °F 20.5 °F 79% 30.55 in 10.0 mi WNW 5.8 mph - N/A   Clear
1:15 AM 26.6 °F 19.1 °F 20.7 °F 78% 30.55 in 10.0 mi NW 6.9 mph - N/A   Clear
1:35 AM 26.6 °F 20.0 °F 20.3 °F 77% 30.55 in 10.0 mi WNW 5.8 mph - N/A   Clear
1:55 AM 26.6 °F 21.2 °F 20.3 °F 77% 30.55 in 10.0 mi WNW 4.6 mph - N/A   Clear
2:15 AM 26.4 °F 20.9 °F 20.1 °F 77% 30.56 in 10.0 mi WNW 4.6 mph - N/A   Clear
2:35 AM 25.9 °F 18.2 °F 20.1 °F 79% 30.56 in 10.0 mi WNW 6.9 mph - N/A   Clear
2:55 AM 26.2 °F 19.6 °F 20.3 °F 78% 30.57 in 10.0 mi West 5.8 mph - N/A   Clear
3:15 AM 26.2 °F 20.7 °F 20.3 °F 78% 30.57 in 10.0 mi NW 4.6 mph - N/A   Scattered Clouds
3:35 AM 26.4 °F 22.4 °F 20.5 °F 78% 30.57 in 10.0 mi WNW 3.5 mph - N/A   Mostly Cloudy
3:55 AM 26.8 °F 21.4 °F 20.7 °F 78% 30.57 in 10.0 mi WNW 4.6 mph - N/A   Overcast
4:15 AM 27.0 °F 18.7 °F 20.3 °F 76% 30.57 in 10.0 mi West 8.1 mph - N/A   Overcast
4:35 AM 26.8 °F 21.4 °F 19.9 °F 75% 30.57 in 10.0 mi West 4.6 mph - N/A   Mostly Cloudy
4:55 AM 25.9 °F 20.3 °F 19.2 °F 76% 30.56 in 10.0 mi West 4.6 mph - N/A   Scattered Clouds
5:15 AM 25.2 °F 19.5 °F 18.9 °F 77% 30.57 in 10.0 mi West 4.6 mph - N/A   Clear
5:35 AM 24.6 °F 20.3 °F 18.7 °F 78% 30.58 in 10.0 mi West 3.5 mph - N/A   Clear
5:55 AM 24.1 °F 18.2 °F 18.3 °F 79% 30.58 in 10.0 mi West 4.6 mph - N/A   Clear
6:15 AM 23.7 °F 19.3 °F 18.3 °F 80% 30.58 in 10.0 mi West 3.5 mph - N/A   Clear
6:35 AM 23.5 °F 19.1 °F 18.3 °F 80% 30.58 in 10.0 mi West 3.5 mph - N/A   Clear
6:55 AM 23.2 °F 17.2 °F 18.0 °F 80% 30.58 in 10.0 mi WSW 4.6 mph - N/A   Clear
7:15 AM 22.6 °F - 17.6 °F 81% 30.58 in 10.0 mi Calm Calm - N/A   Clear
7:35 AM 22.3 °F - 17.4 °F 82% 30.59 in 10.0 mi Calm Calm - N/A   Clear
7:55 AM 22.3 °F - 17.8 °F 83% 30.59 in 10.0 mi Calm Calm - N/A   Clear
8:15 AM 24.3 °F - 19.2 °F 81% 30.60 in 10.0 mi Calm Calm - N/A   Clear
8:35 AM 26.1 °F - 19.8 °F 77% 30.60 in 10.0 mi Calm Calm - N/A   Clear
8:55 AM 27.1 °F 23.2 °F 19.9 °F 74% 30.60 in 10.0 mi WSW 3.5 mph - N/A   Clear
9:15 AM 28.4 °F 24.6 °F 20.5 °F 72% 30.60 in 10.0 mi WSW 3.5 mph - N/A   Clear
9:35 AM 29.5 °F - 20.1 °F 68% 30.60 in 10.0 mi Calm Calm - N/A   Clear
9:55 AM 30.6 °F 24.7 °F 19.6 °F 64% 30.60 in 10.0 mi WSW 5.8 mph - N/A   Clear
10:15 AM 32.0 °F 27.5 °F 20.5 °F 63% 30.59 in 10.0 mi WSW 4.6 mph - N/A   Clear
10:35 AM 32.9 °F 27.5 °F 19.6 °F 58% 30.59 in 10.0 mi WSW 5.8 mph - N/A   Clear
10:55 AM 34.2 °F 26.8 °F 18.7 °F 53% 30.59 in 10.0 mi WSW 9.2 mph - N/A   Clear
11:15 AM 35.2 °F 28.8 °F 19.6 °F 53% 30.59 in 10.0 mi WSW 8.1 mph - N/A   Clear
11:35 AM 35.8 °F 28.3 °F 19.2 °F 51% 30.57 in 10.0 mi WSW 10.4 mph - N/A   Clear
11:55 AM 36.0 °F 28.5 °F 17.6 °F 47% 30.56 in 10.0 mi SW 10.4 mph - N/A   Clear
12:15 PM 36.7 °F 28.9 °F 16.0 °F 43% 30.56 in 10.0 mi SW 11.5 mph 16.1 mph N/A   Clear
12:35 PM 37.2 °F 28.7 °F 14.4 °F 39% 30.54 in 10.0 mi WSW 13.8 mph - N/A   Clear
12:55 PM 37.8 °F 31.3 °F 14.0 °F 38% 30.54 in 10.0 mi SW 9.2 mph - N/A   Clear
1:15 PM 38.3 °F 31.4 °F 13.6 °F 37% 30.53 in 10.0 mi SW 10.4 mph - N/A   Clear
1:35 PM 38.5 °F 30.7 °F 14.2 °F 37% 30.53 in 10.0 mi WSW 12.7 mph - N/A   Clear
1:55 PM 38.8 °F 32.6 °F 14.2 °F 37% 30.52 in 10.0 mi SW 9.2 mph 18.4 mph N/A   Clear
2:15 PM 38.8 °F 31.6 °F 15.4 °F 39% 30.51 in 10.0 mi WSW 11.5 mph 19.6 mph N/A   Clear
2:35 PM 39.2 °F 31.2 °F 15.4 °F 38% 30.50 in 10.0 mi WSW 13.8 mph 17.3 mph N/A   Clear
2:55 PM 39.2 °F 32.0 °F 14.2 °F 36% 30.50 in 10.0 mi SW 11.5 mph - N/A   Clear
3:15 PM 39.4 °F 32.7 °F 15.1 °F 37% 30.49 in 10.0 mi SW 10.4 mph - N/A   Clear
3:35 PM 39.4 °F 32.3 °F 16.2 °F 39% 30.49 in 10.0 mi SW 11.5 mph - N/A   Clear
3:55 PM 39.2 °F 32.0 °F 15.3 °F 38% 30.49 in 10.0 mi SW 11.5 mph - N/A   Clear
4:15 PM 39.0 °F 32.3 °F 15.1 °F 38% 30.48 in 10.0 mi SW 10.4 mph - N/A   Clear
4:35 PM 38.5 °F 31.6 °F 14.9 °F 38% 30.47 in 10.0 mi SW 10.4 mph - N/A   Clear
4:55 PM 37.6 °F 32.3 °F 15.8 °F 41% 30.46 in 10.0 mi SW 6.9 mph - N/A   Clear
5:15 PM 36.0 °F 31.1 °F 17.8 °F 48% 30.46 in 10.0 mi SW 5.8 mph - N/A   Clear
5:35 PM 34.3 °F 27.7 °F 18.5 °F 52% 30.46 in 10.0 mi SSW 8.1 mph - N/A   Clear
5:55 PM 33.4 °F 28.1 °F 18.9 °F 55% 30.46 in 10.0 mi SSW 5.8 mph - N/A   Clear
6:15 PM 32.9 °F 26.7 °F 19.0 °F 57% 30.46 in 10.0 mi South 6.9 mph - N/A   Clear
6:35 PM 32.5 °F 25.5 °F 18.5 °F 56% 30.45 in 10.0 mi SSW 8.1 mph - N/A   Clear
6:55 PM 32.2 °F 26.7 °F 18.7 °F 58% 30.45 in 10.0 mi SSW 5.8 mph - N/A   Clear
7:15 PM 32.0 °F 24.8 °F 18.7 °F 58% 30.44 in 10.0 mi SSW 8.1 mph - N/A   Clear
7:35 PM 32.0 °F 26.4 °F 18.1 °F 57% 30.43 in 10.0 mi South 5.8 mph - N/A   Clear
7:55 PM 32.0 °F 26.4 °F 18.3 °F 57% 30.43 in 10.0 mi South 5.8 mph - N/A   Clear
8:15 PM 31.8 °F 26.2 °F 18.0 °F 57% 30.42 in 10.0 mi South 5.8 mph - N/A   Clear
8:35 PM 31.3 °F 24.7 °F 17.6 °F 57% 30.42 in 10.0 mi South 6.9 mph - N/A   Clear
8:55 PM 31.8 °F 23.9 °F 17.4 °F 55% 30.41 in 10.0 mi South 9.2 mph - N/A   Clear
9:15 PM 32.0 °F 24.2 °F 16.7 °F 53% 30.41 in 10.0 mi South 9.2 mph - N/A   Clear
9:35 PM 32.0 °F 24.8 °F 17.1 °F 54% 30.41 in 10.0 mi South 8.1 mph - N/A   Clear
9:55 PM 32.0 °F 24.8 °F 17.6 °F 55% 30.40 in 10.0 mi SSW 8.1 mph - N/A   Clear
10:15 PM 31.3 °F 23.9 °F 18.3 °F 59% 30.40 in 10.0 mi SSW 8.1 mph - N/A   Clear
10:35 PM 30.7 °F 24.1 °F 18.5 °F 60% 30.40 in 10.0 mi SSW 6.9 mph - N/A   Clear
10:55 PM 30.2 °F 23.4 °F 18.9 °F 63% 30.40 in 10.0 mi SSW 6.9 mph - N/A   Clear
11:15 PM 29.8 °F 23.0 °F 18.9 °F 64% 30.40 in 10.0 mi South 6.9 mph - N/A   Clear
11:35 PM 29.3 °F 21.5 °F 18.9 °F 65% 30.40 in 10.0 mi South 8.1 mph - N/A   Clear
11:55 PM 29.8 °F 23.0 °F 18.9 °F 64% 30.38 in 10.0 mi South 6.9 mph - N/A   Clear